Terminal Aerodrome Forecast
Issued by NWS Cleveland, OH

Home | Current Version | Previous Version | Graphics & Text | Print | Product List | Glossary On
Versions: 1 2 3 4 5 6 7 8 9 10 11 12 13 14 15 16 17 18 19 20
000
FTUS41 KCLE 261300 AAA
TAFERI
TAF AMD
KERI 261340Z 2614/2712 04010KT P6SM OVC050
     FM261430 04008KT 2SM -SN OVC025
     FM261630 04008KT 1 1/2SM -SN OVC010
     FM262200 02008KT 4SM -SN BR OVC015
     FM270300 33006KT P6SM OVC025=

USA.gov is the U.S. government's official web portal to all federal, state and local government web resources and services.